Year,Month,Day,Hour,Minute,Value (Times are PST for temperature in C)
2014,04,11,00,00,8.50
2014,04,11,00,01,8.50
2014,04,11,00,02,8.50
2014,04,11,00,03,8.50
2014,04,11,00,04,8.50
2014,04,11,00,05,8.50
2014,04,11,00,06,8.50
2014,04,11,00,07,8.50
2014,04,11,00,08,8.50
2014,04,11,00,09,8.50
2014,04,11,00,10,8.50
2014,04,11,00,11,8.50
2014,04,11,00,12,8.50
2014,04,11,00,13,8.50
2014,04,11,00,14,8.50
2014,04,11,00,15,8.50
2014,04,11,00,16,8.50
2014,04,11,00,17,8.50
2014,04,11,00,18,8.50
2014,04,11,00,19,8.50
2014,04,11,00,20,8.50
2014,04,11,00,21,8.50
2014,04,11,00,22,8.50
2014,04,11,00,23,8.50
2014,04,11,00,24,8.50
2014,04,11,00,25,8.60
2014,04,11,00,26,8.60
2014,04,11,00,27,8.50
2014,04,11,00,28,8.50
2014,04,11,00,29,8.50
2014,04,11,00,30,8.50
2014,04,11,00,31,8.50
2014,04,11,00,32,8.50
2014,04,11,00,33,8.50
2014,04,11,00,34,8.50
2014,04,11,00,35,8.50
2014,04,11,00,36,8.50
2014,04,11,00,37,8.40
2014,04,11,00,38,8.40
2014,04,11,00,39,8.40
2014,04,11,00,40,8.40
2014,04,11,00,41,8.40
2014,04,11,00,42,8.40
2014,04,11,00,43,8.40
2014,04,11,00,44,8.40
2014,04,11,00,45,8.30
2014,04,11,00,46,8.30
2014,04,11,00,47,8.30
2014,04,11,00,48,8.30
2014,04,11,00,49,8.30
2014,04,11,00,50,8.30
2014,04,11,00,51,8.20
2014,04,11,00,52,8.20
2014,04,11,00,53,8.20
2014,04,11,00,54,8.20
2014,04,11,00,55,8.20
2014,04,11,00,56,8.20
2014,04,11,00,57,8.20
2014,04,11,00,58,8.20
2014,04,11,00,59,8.20
2014,04,11,01,00,8.20
2014,04,11,01,01,8.20
2014,04,11,01,02,8.10
2014,04,11,01,03,8.10
2014,04,11,01,04,8.10
2014,04,11,01,05,8.10
2014,04,11,01,06,8.10
2014,04,11,01,07,8.00
2014,04,11,01,08,8.00
2014,04,11,01,09,8.00
2014,04,11,01,10,7.90
2014,04,11,01,11,7.90
2014,04,11,01,12,7.90
2014,04,11,01,13,7.90
2014,04,11,01,14,7.80
2014,04,11,01,15,7.80
2014,04,11,01,16,7.80
2014,04,11,01,17,7.80
2014,04,11,01,18,7.80
2014,04,11,01,19,7.80
2014,04,11,01,20,7.80
2014,04,11,01,21,7.80
2014,04,11,01,22,7.80
2014,04,11,01,23,7.70
2014,04,11,01,24,7.70
2014,04,11,01,25,7.70
2014,04,11,01,26,7.70
2014,04,11,01,27,7.70
2014,04,11,01,28,7.70
2014,04,11,01,29,7.70
2014,04,11,01,30,7.70
2014,04,11,01,31,7.60
2014,04,11,01,32,7.60
2014,04,11,01,33,7.60
2014,04,11,01,34,7.60
2014,04,11,01,35,7.60
2014,04,11,01,36,7.50
2014,04,11,01,37,7.50
2014,04,11,01,38,7.50
2014,04,11,01,39,7.50
2014,04,11,01,40,7.40
2014,04,11,01,41,7.40
2014,04,11,01,42,7.40
2014,04,11,01,43,7.40
2014,04,11,01,44,7.30
2014,04,11,01,45,7.30
2014,04,11,01,46,7.30
2014,04,11,01,47,7.30
2014,04,11,01,48,7.30
2014,04,11,01,49,7.20
2014,04,11,01,50,7.20
2014,04,11,01,51,7.20
2014,04,11,01,52,7.20
2014,04,11,01,53,7.10
2014,04,11,01,54,7.10
2014,04,11,01,55,7.10
2014,04,11,01,56,7.10
2014,04,11,01,57,7.00
2014,04,11,01,58,7.00
2014,04,11,01,59,7.00
2014,04,11,02,00,7.00
2014,04,11,02,01,6.90
2014,04,11,02,02,6.90
2014,04,11,02,03,6.90
2014,04,11,02,04,6.90
2014,04,11,02,05,6.90
2014,04,11,02,06,6.90
2014,04,11,02,07,6.80
2014,04,11,02,08,6.80
2014,04,11,02,09,6.80
2014,04,11,02,10,6.80
2014,04,11,02,11,6.80
2014,04,11,02,12,6.80
2014,04,11,02,13,6.80
2014,04,11,02,14,6.80
2014,04,11,02,15,6.80
2014,04,11,02,16,6.80
2014,04,11,02,17,6.70
2014,04,11,02,18,6.70
2014,04,11,02,19,6.70
2014,04,11,02,20,6.60
2014,04,11,02,21,6.60
2014,04,11,02,22,6.60
2014,04,11,02,23,6.60
2014,04,11,02,24,6.40
2014,04,11,02,25,6.40
2014,04,11,02,26,6.40
2014,04,11,02,27,6.40
2014,04,11,02,28,6.40
2014,04,11,02,29,6.30
2014,04,11,02,30,6.30
2014,04,11,02,31,6.30
2014,04,11,02,32,6.20
2014,04,11,02,33,6.20
2014,04,11,02,34,6.20
2014,04,11,02,35,6.20
2014,04,11,02,36,6.20
2014,04,11,02,37,6.20
2014,04,11,02,38,6.20
2014,04,11,02,39,6.20
2014,04,11,02,40,6.20
2014,04,11,02,41,6.20
2014,04,11,02,42,6.20
2014,04,11,02,43,6.10
2014,04,11,02,44,6.10
2014,04,11,02,45,6.10
2014,04,11,02,46,6.10
2014,04,11,02,47,6.00
2014,04,11,02,48,6.00
2014,04,11,02,49,6.00
2014,04,11,02,50,6.00
2014,04,11,02,51,6.00
2014,04,11,02,52,5.90
2014,04,11,02,53,5.90
2014,04,11,02,54,5.90
2014,04,11,02,55,5.90
2014,04,11,02,56,5.80
2014,04,11,02,57,5.80
2014,04,11,02,58,5.80
2014,04,11,02,59,5.80
2014,04,11,03,00,5.80
2014,04,11,03,01,5.70
2014,04,11,03,02,5.70
2014,04,11,03,03,5.70
2014,04,11,03,04,5.70
2014,04,11,03,05,5.70
2014,04,11,03,06,5.60
2014,04,11,03,07,5.60
2014,04,11,03,08,5.60
2014,04,11,03,09,5.50
2014,04,11,03,10,5.50
2014,04,11,03,11,5.50
2014,04,11,03,12,5.40
2014,04,11,03,13,5.40
2014,04,11,03,14,5.30
2014,04,11,03,15,5.30
2014,04,11,03,16,5.30
2014,04,11,03,17,5.30
2014,04,11,03,18,5.30
2014,04,11,03,19,5.30
2014,04,11,03,20,5.30
2014,04,11,03,21,5.30
2014,04,11,03,22,5.30
2014,04,11,03,23,5.30
2014,04,11,03,24,5.30
2014,04,11,03,25,5.30
2014,04,11,03,26,5.30
2014,04,11,03,27,5.30
2014,04,11,03,28,5.30
2014,04,11,03,29,5.30
2014,04,11,03,30,5.30
2014,04,11,03,31,5.30
2014,04,11,03,32,5.30
2014,04,11,03,33,5.30
2014,04,11,03,34,5.30
2014,04,11,03,35,5.30
2014,04,11,03,36,5.30
2014,04,11,03,37,5.30
2014,04,11,03,38,5.30
2014,04,11,03,39,5.30
2014,04,11,03,40,5.30
2014,04,11,03,41,5.20
2014,04,11,03,42,5.20
2014,04,11,03,43,5.20
2014,04,11,03,44,5.20
2014,04,11,03,45,5.10
2014,04,11,03,46,5.10
2014,04,11,03,47,5.10
2014,04,11,03,48,5.10
2014,04,11,03,49,5.10
2014,04,11,03,50,5.10
2014,04,11,03,51,5.10
2014,04,11,03,52,5.00
2014,04,11,03,53,4.90
2014,04,11,03,54,4.90
2014,04,11,03,55,4.90
2014,04,11,03,56,4.90
2014,04,11,03,57,4.90
2014,04,11,03,58,4.90
2014,04,11,03,59,4.90
2014,04,11,04,00,4.90
2014,04,11,04,01,4.90
2014,04,11,04,02,4.80
2014,04,11,04,03,4.80
2014,04,11,04,04,4.70
2014,04,11,04,05,4.70
2014,04,11,04,06,4.70
2014,04,11,04,07,4.70
2014,04,11,04,08,4.60
2014,04,11,04,09,4.60
2014,04,11,04,10,4.60
2014,04,11,04,11,4.60
2014,04,11,04,12,4.60
2014,04,11,04,13,4.60
2014,04,11,04,14,4.60
2014,04,11,04,15,4.60
2014,04,11,04,16,4.60
2014,04,11,04,17,4.50
2014,04,11,04,18,4.50
2014,04,11,04,19,4.50
2014,04,11,04,20,4.50
2014,04,11,04,21,4.50
2014,04,11,04,22,4.60
2014,04,11,04,23,4.60
2014,04,11,04,24,4.60
2014,04,11,04,25,4.60
2014,04,11,04,26,4.60
2014,04,11,04,27,4.60
2014,04,11,04,28,4.60
2014,04,11,04,29,4.60
2014,04,11,04,30,4.60
2014,04,11,04,31,4.60
2014,04,11,04,32,4.60
2014,04,11,04,33,4.60
2014,04,11,04,34,4.60
2014,04,11,04,35,4.60
2014,04,11,04,36,4.60
2014,04,11,04,37,4.60
2014,04,11,04,38,4.60
2014,04,11,04,39,4.60
2014,04,11,04,40,4.60
2014,04,11,04,41,4.60
2014,04,11,04,42,4.60
2014,04,11,04,43,4.60
2014,04,11,04,44,4.60
2014,04,11,04,45,4.60
2014,04,11,04,46,4.60
2014,04,11,04,47,4.70
2014,04,11,04,48,4.70
2014,04,11,04,49,4.70
2014,04,11,04,50,4.70
2014,04,11,04,51,4.80
2014,04,11,04,52,4.80
2014,04,11,04,53,4.80
2014,04,11,04,54,4.80
2014,04,11,04,55,4.80
2014,04,11,04,56,4.90
2014,04,11,04,57,4.90
2014,04,11,04,58,4.90
2014,04,11,04,59,4.90
2014,04,11,05,00,4.90
2014,04,11,05,01,4.90
2014,04,11,05,02,4.90
2014,04,11,05,03,4.90
2014,04,11,05,04,4.90
2014,04,11,05,05,5.00
2014,04,11,05,06,5.10
2014,04,11,05,07,5.10
2014,04,11,05,08,5.10
2014,04,11,05,09,5.10
2014,04,11,05,10,5.10
2014,04,11,05,11,5.10
2014,04,11,05,12,5.10
2014,04,11,05,13,5.10
2014,04,11,05,14,5.10
2014,04,11,05,15,5.10
2014,04,11,05,16,5.10
2014,04,11,05,17,5.10
2014,04,11,05,18,5.10
2014,04,11,05,19,5.10
2014,04,11,05,20,5.10
2014,04,11,05,21,5.10
2014,04,11,05,22,5.10
2014,04,11,05,23,5.10
2014,04,11,05,24,5.10
2014,04,11,05,25,5.10
2014,04,11,05,26,5.10
2014,04,11,05,27,5.10
2014,04,11,05,28,5.10
2014,04,11,05,29,5.00
2014,04,11,05,30,4.90
2014,04,11,05,31,4.90
2014,04,11,05,32,4.90
2014,04,11,05,33,4.90
2014,04,11,05,34,5.00
2014,04,11,05,35,5.10
2014,04,11,05,36,5.10
2014,04,11,05,37,5.10
2014,04,11,05,38,5.10
2014,04,11,05,39,5.10
2014,04,11,05,40,5.10
2014,04,11,05,41,5.10
2014,04,11,05,42,5.10
2014,04,11,05,43,5.10
2014,04,11,05,44,5.10
2014,04,11,05,45,5.10
2014,04,11,05,46,5.10
2014,04,11,05,47,5.10
2014,04,11,05,48,5.20
2014,04,11,05,49,5.20
2014,04,11,05,50,5.30
2014,04,11,05,51,5.30
2014,04,11,05,52,5.30
2014,04,11,05,53,5.30
2014,04,11,05,54,5.30
2014,04,11,05,55,5.30
2014,04,11,05,56,5.30
2014,04,11,05,57,5.30
2014,04,11,05,58,5.30
2014,04,11,05,59,5.30
2014,04,11,06,00,5.40
2014,04,11,06,01,5.40
2014,04,11,06,02,5.40
2014,04,11,06,03,5.40
2014,04,11,06,04,5.40
2014,04,11,06,05,5.40
2014,04,11,06,06,5.40
2014,04,11,06,07,5.40
2014,04,11,06,08,5.40
2014,04,11,06,09,5.40
2014,04,11,06,10,5.40
2014,04,11,06,11,5.30
2014,04,11,06,12,5.30
2014,04,11,06,13,5.30
2014,04,11,06,14,5.30
2014,04,11,06,15,5.30
2014,04,11,06,16,5.30
2014,04,11,06,17,5.30
2014,04,11,06,18,5.30
2014,04,11,06,19,5.30
2014,04,11,06,20,5.30
2014,04,11,06,21,5.30
2014,04,11,06,22,5.30
2014,04,11,06,23,5.30
2014,04,11,06,24,5.30
2014,04,11,06,25,5.30
2014,04,11,06,26,5.30
2014,04,11,06,27,5.30
2014,04,11,06,28,5.30
2014,04,11,06,29,5.30
2014,04,11,06,30,5.30
2014,04,11,06,31,5.40
2014,04,11,06,32,5.40
2014,04,11,06,33,5.40
2014,04,11,06,34,5.40
2014,04,11,06,35,5.50
2014,04,11,06,36,5.50
2014,04,11,06,37,5.60
2014,04,11,06,38,5.60
2014,04,11,06,39,5.60
2014,04,11,06,40,5.60
2014,04,11,06,41,5.60
2014,04,11,06,42,5.60
2014,04,11,06,43,5.70
2014,04,11,06,44,5.70
2014,04,11,06,45,5.80
2014,04,11,06,46,5.90
2014,04,11,06,47,5.90
2014,04,11,06,48,6.00
2014,04,11,06,49,6.20
2014,04,11,06,50,6.20
2014,04,11,06,51,6.30
2014,04,11,06,52,6.40
2014,04,11,06,53,6.60
2014,04,11,06,54,6.60
2014,04,11,06,55,6.80
2014,04,11,06,56,6.90
2014,04,11,06,57,7.00
2014,04,11,06,58,7.10
2014,04,11,06,59,7.20
2014,04,11,07,00,7.30
2014,04,11,07,01,7.30
2014,04,11,07,02,7.40
2014,04,11,07,03,7.50
2014,04,11,07,04,7.60
2014,04,11,07,05,7.70
2014,04,11,07,06,7.80
2014,04,11,07,07,7.80
2014,04,11,07,08,7.80
2014,04,11,07,09,7.90
2014,04,11,07,10,7.90
2014,04,11,07,11,7.90
2014,04,11,07,12,8.00
2014,04,11,07,13,8.00
2014,04,11,07,14,8.00
2014,04,11,07,15,8.00
2014,04,11,07,16,8.00
2014,04,11,07,17,8.10
2014,04,11,07,18,8.10
2014,04,11,07,19,8.10
2014,04,11,07,20,8.10
2014,04,11,07,21,8.10
2014,04,11,07,22,8.10
2014,04,11,07,23,8.20
2014,04,11,07,24,8.20
2014,04,11,07,25,8.20
2014,04,11,07,26,8.20
2014,04,11,07,27,8.20
2014,04,11,07,28,8.20
2014,04,11,07,29,8.20
2014,04,11,07,30,8.20
2014,04,11,07,31,8.20
2014,04,11,07,32,8.20
2014,04,11,07,33,8.20
2014,04,11,07,34,8.20
2014,04,11,07,35,8.20
2014,04,11,07,36,8.30
2014,04,11,07,37,8.30
2014,04,11,07,38,8.30
2014,04,11,07,39,8.30
2014,04,11,07,40,8.30
2014,04,11,07,41,8.30
2014,04,11,07,42,8.40
2014,04,11,07,43,8.40
2014,04,11,07,44,8.40
2014,04,11,07,45,8.40
2014,04,11,07,46,8.40
2014,04,11,07,47,8.50
2014,04,11,07,48,8.50
2014,04,11,07,49,8.50
2014,04,11,07,50,8.50
2014,04,11,07,51,8.50
2014,04,11,07,52,8.50
2014,04,11,07,53,8.60
2014,04,11,07,54,8.60
2014,04,11,07,55,8.70
2014,04,11,07,56,8.70
2014,04,11,07,57,8.70
2014,04,11,07,58,8.70
2014,04,11,07,59,8.70
2014,04,11,08,00,8.80
2014,04,11,08,01,8.80
2014,04,11,08,02,8.80
2014,04,11,08,03,8.90
2014,04,11,08,04,8.90
2014,04,11,08,05,9.00
2014,04,11,08,06,9.00
2014,04,11,08,07,9.10
2014,04,11,08,08,9.10
2014,04,11,08,09,9.20
2014,04,11,08,10,9.20
2014,04,11,08,11,9.20
2014,04,11,08,12,9.20
2014,04,11,08,13,9.20
2014,04,11,08,14,9.20
2014,04,11,08,15,9.20
2014,04,11,08,16,9.30
2014,04,11,08,17,9.30
2014,04,11,08,18,9.30
2014,04,11,08,19,9.40
2014,04,11,08,20,9.40
2014,04,11,08,21,9.40
2014,04,11,08,22,9.50
2014,04,11,08,23,9.50
2014,04,11,08,24,9.50
2014,04,11,08,25,9.50
2014,04,11,08,26,9.60
2014,04,11,08,27,9.60
2014,04,11,08,28,9.70
2014,04,11,08,29,9.70
2014,04,11,08,30,9.80
2014,04,11,08,31,9.80
2014,04,11,08,32,9.90
2014,04,11,08,33,9.90
2014,04,11,08,34,9.90
2014,04,11,08,35,9.90
2014,04,11,08,36,10.10
2014,04,11,08,37,10.10
2014,04,11,08,38,10.10
2014,04,11,08,39,10.10
2014,04,11,08,40,10.20
2014,04,11,08,41,10.20
2014,04,11,08,42,10.20
2014,04,11,08,43,10.20
2014,04,11,08,44,10.20
2014,04,11,08,45,10.20
2014,04,11,08,46,10.20
2014,04,11,08,47,10.20
2014,04,11,08,48,10.10
2014,04,11,08,49,10.10
2014,04,11,08,50,10.00
2014,04,11,08,51,9.90
2014,04,11,08,52,9.90
2014,04,11,08,53,9.90
2014,04,11,08,54,9.90
2014,04,11,08,55,9.90
2014,04,11,08,56,9.90
2014,04,11,08,57,9.90
2014,04,11,08,58,9.90
2014,04,11,08,59,9.90
2014,04,11,09,00,9.90
2014,04,11,09,01,9.90
2014,04,11,09,02,9.90
2014,04,11,09,03,9.90
2014,04,11,09,04,9.90
2014,04,11,09,05,9.90
2014,04,11,09,06,10.00
2014,04,11,09,07,10.10
2014,04,11,09,08,10.10
2014,04,11,09,09,10.10
2014,04,11,09,10,10.10
2014,04,11,09,11,10.10
2014,04,11,09,12,10.10
2014,04,11,09,13,10.10
2014,04,11,09,14,10.20
2014,04,11,09,15,10.20
2014,04,11,09,16,10.30
2014,04,11,09,17,10.30
2014,04,11,09,18,10.30
2014,04,11,09,19,10.30
2014,04,11,09,20,10.40
2014,04,11,09,21,10.40
2014,04,11,09,22,10.40
2014,04,11,09,23,10.50
2014,04,11,09,24,10.60
2014,04,11,09,25,10.60
2014,04,11,09,26,10.70
2014,04,11,09,27,10.80
2014,04,11,09,28,10.80
2014,04,11,09,29,10.90
2014,04,11,09,30,10.90
2014,04,11,09,31,10.90
2014,04,11,09,32,10.90
2014,04,11,09,33,11.00
2014,04,11,09,34,11.10
2014,04,11,09,35,11.10
2014,04,11,09,36,11.10
2014,04,11,09,37,11.10
2014,04,11,09,38,11.10
2014,04,11,09,39,11.10
2014,04,11,09,40,11.20
2014,04,11,09,41,11.20
2014,04,11,09,42,11.30
2014,04,11,09,43,11.40
2014,04,11,09,44,11.40
2014,04,11,09,45,11.50
2014,04,11,09,46,11.60
2014,04,11,09,47,11.60
2014,04,11,09,48,11.70
2014,04,11,09,49,11.80
2014,04,11,09,50,11.80
2014,04,11,09,51,11.90
2014,04,11,09,52,11.90
2014,04,11,09,53,12.00
2014,04,11,09,54,12.00
2014,04,11,09,55,12.10
2014,04,11,09,56,12.10
2014,04,11,09,57,12.20
2014,04,11,09,58,12.20
2014,04,11,09,59,12.30
2014,04,11,10,00,12.40
2014,04,11,10,01,12.40
2014,04,11,10,02,12.40
2014,04,11,10,03,12.50
2014,04,11,10,04,12.70
2014,04,11,10,05,12.80
2014,04,11,10,06,12.80
2014,04,11,10,07,12.80
2014,04,11,10,08,12.80
2014,04,11,10,09,12.90
2014,04,11,10,10,12.90
2014,04,11,10,11,13.00
2014,04,11,10,12,13.00
2014,04,11,10,13,13.00
2014,04,11,10,14,13.10
2014,04,11,10,15,13.10
2014,04,11,10,16,13.20
2014,04,11,10,17,13.20
2014,04,11,10,18,13.30
2014,04,11,10,19,13.30
2014,04,11,10,20,13.40
2014,04,11,10,21,13.50
2014,04,11,10,22,13.60
2014,04,11,10,23,13.60
2014,04,11,10,24,13.70
2014,04,11,10,25,13.70
2014,04,11,10,26,13.70
2014,04,11,10,27,13.70
2014,04,11,10,28,13.70
2014,04,11,10,29,13.80
2014,04,11,10,30,13.90
2014,04,11,10,31,14.00
2014,04,11,10,32,14.00
2014,04,11,10,33,14.00
2014,04,11,10,34,14.10
2014,04,11,10,35,14.20
2014,04,11,10,36,14.10
2014,04,11,10,37,14.00
2014,04,11,10,38,14.00
2014,04,11,10,39,14.00
2014,04,11,10,40,13.90
2014,04,11,10,41,13.80
2014,04,11,10,42,13.80
2014,04,11,10,43,13.80
2014,04,11,10,44,13.90
2014,04,11,10,45,14.00
2014,04,11,10,46,14.00
2014,04,11,10,47,14.00
2014,04,11,10,48,14.00
2014,04,11,10,49,14.00
2014,04,11,10,50,14.00
2014,04,11,10,51,14.10
2014,04,11,10,52,14.10
2014,04,11,10,53,14.20
2014,04,11,10,54,14.20
2014,04,11,10,55,14.30
2014,04,11,10,56,14.30
2014,04,11,10,57,14.20
2014,04,11,10,58,14.20
2014,04,11,10,59,14.20
2014,04,11,11,00,14.10
2014,04,11,11,01,14.10
2014,04,11,11,02,14.10
2014,04,11,11,03,14.10
2014,04,11,11,04,14.10
2014,04,11,11,05,14.10
2014,04,11,11,06,14.10
2014,04,11,11,07,14.10
2014,04,11,11,08,14.10
2014,04,11,11,09,14.10
2014,04,11,11,10,14.10
2014,04,11,11,11,14.20
2014,04,11,11,12,14.20
2014,04,11,11,13,14.20
2014,04,11,11,14,14.20
2014,04,11,11,15,14.30
2014,04,11,11,16,14.30
2014,04,11,11,17,14.30
2014,04,11,11,18,14.30
2014,04,11,11,19,14.30
2014,04,11,11,20,14.30
2014,04,11,11,21,14.30
2014,04,11,11,22,14.40
2014,04,11,11,23,14.40
2014,04,11,11,24,14.50
2014,04,11,11,25,14.50
2014,04,11,11,26,14.50
2014,04,11,11,27,14.60
2014,04,11,11,28,14.50
2014,04,11,11,29,14.60
2014,04,11,11,30,14.60
2014,04,11,11,31,14.50
2014,04,11,11,32,14.50
2014,04,11,11,33,14.60
2014,04,11,11,34,14.60
2014,04,11,11,35,14.70
2014,04,11,11,36,14.80
2014,04,11,11,37,14.80
2014,04,11,11,38,14.90
2014,04,11,11,39,14.90
2014,04,11,11,40,14.90
2014,04,11,11,41,14.90
2014,04,11,11,42,14.80
2014,04,11,11,43,14.80
2014,04,11,11,44,14.90
2014,04,11,11,45,14.90
2014,04,11,11,46,15.00
2014,04,11,11,47,14.90
2014,04,11,11,48,14.80
2014,04,11,11,49,14.80
2014,04,11,11,50,14.80
2014,04,11,11,51,14.90
2014,04,11,11,52,14.90
2014,04,11,11,53,15.00
2014,04,11,11,54,15.00
2014,04,11,11,55,15.10
2014,04,11,11,56,15.10
2014,04,11,11,57,15.10
2014,04,11,11,58,15.10
2014,04,11,11,59,15.10
2014,04,11,12,00,15.10
2014,04,11,12,01,15.10
2014,04,11,12,02,15.10
2014,04,11,12,03,15.10
2014,04,11,12,04,15.10
2014,04,11,12,05,15.10
2014,04,11,12,06,15.10
2014,04,11,12,07,15.10
2014,04,11,12,08,15.20
2014,04,11,12,09,15.40
2014,04,11,12,10,15.50
2014,04,11,12,11,15.60
2014,04,11,12,12,15.80
2014,04,11,12,13,15.80
2014,04,11,12,14,15.80
2014,04,11,12,15,15.80
2014,04,11,12,16,15.70
2014,04,11,12,17,15.70
2014,04,11,12,18,15.60
2014,04,11,12,19,15.50
2014,04,11,12,20,15.50
2014,04,11,12,21,15.60
2014,04,11,12,22,15.60
2014,04,11,12,23,15.60
2014,04,11,12,24,15.60
2014,04,11,12,25,15.60
2014,04,11,12,26,15.70
2014,04,11,12,27,15.80
2014,04,11,12,28,15.80
2014,04,11,12,29,15.80
2014,04,11,12,30,15.90
2014,04,11,12,31,15.90
2014,04,11,12,32,15.90
2014,04,11,12,33,15.90
2014,04,11,12,34,15.80
2014,04,11,12,35,15.80
2014,04,11,12,36,15.80
2014,04,11,12,37,15.70
2014,04,11,12,38,15.60
2014,04,11,12,39,15.70
2014,04,11,12,40,15.60
2014,04,11,12,41,15.60
2014,04,11,12,42,15.50
2014,04,11,12,43,15.40
2014,04,11,12,44,15.50
2014,04,11,12,45,15.60
2014,04,11,12,46,15.60
2014,04,11,12,47,15.60
2014,04,11,12,48,15.40
2014,04,11,12,49,15.40
2014,04,11,12,50,15.50
2014,04,11,12,51,15.50
2014,04,11,12,52,15.50
2014,04,11,12,53,15.70
2014,04,11,12,54,15.80
2014,04,11,12,55,16.00
2014,04,11,12,56,16.10
2014,04,11,12,57,16.10
2014,04,11,12,58,16.10
2014,04,11,12,59,16.20
2014,04,11,13,00,16.30
2014,04,11,13,01,16.40
2014,04,11,13,02,16.30
2014,04,11,13,03,16.10
2014,04,11,13,04,16.10
2014,04,11,13,05,16.10
2014,04,11,13,06,16.10
2014,04,11,13,07,16.10
2014,04,11,13,08,16.10
2014,04,11,13,09,16.20
2014,04,11,13,10,16.30
2014,04,11,13,11,16.40
2014,04,11,13,12,16.40
2014,04,11,13,13,16.40
2014,04,11,13,14,16.40
2014,04,11,13,15,16.40
2014,04,11,13,16,16.40
2014,04,11,13,17,16.40
2014,04,11,13,18,16.30
2014,04,11,13,19,16.20
2014,04,11,13,20,16.20
2014,04,11,13,21,16.20
2014,04,11,13,22,16.20
2014,04,11,13,23,16.30
2014,04,11,13,24,16.30
2014,04,11,13,25,16.30
2014,04,11,13,26,16.40
2014,04,11,13,27,16.30
2014,04,11,13,28,16.30
2014,04,11,13,29,16.40
2014,04,11,13,30,16.20
2014,04,11,13,31,16.10
2014,04,11,13,32,16.10
2014,04,11,13,33,15.90
2014,04,11,13,34,15.90
2014,04,11,13,35,15.80
2014,04,11,13,36,15.60
2014,04,11,13,37,15.40
2014,04,11,13,38,15.20
2014,04,11,13,39,15.10
2014,04,11,13,40,15.10
2014,04,11,13,41,15.00
2014,04,11,13,42,15.00
2014,04,11,13,43,14.90
2014,04,11,13,44,14.90
2014,04,11,13,45,14.90
2014,04,11,13,46,15.00
2014,04,11,13,47,15.10
2014,04,11,13,48,15.10
2014,04,11,13,49,15.20
2014,04,11,13,50,15.20
2014,04,11,13,51,15.20
2014,04,11,13,52,15.20
2014,04,11,13,53,15.10
2014,04,11,13,54,15.00
2014,04,11,13,55,15.10
2014,04,11,13,56,15.20
2014,04,11,13,57,15.30
2014,04,11,13,58,15.30
2014,04,11,13,59,15.40
2014,04,11,14,00,15.40
2014,04,11,14,01,15.50
2014,04,11,14,02,15.60
2014,04,11,14,03,15.50
2014,04,11,14,04,15.30
2014,04,11,14,05,15.30
2014,04,11,14,06,15.10
2014,04,11,14,07,15.10
2014,04,11,14,08,15.00
2014,04,11,14,09,15.00
2014,04,11,14,10,14.80
2014,04,11,14,11,14.70
2014,04,11,14,12,14.70
2014,04,11,14,13,14.60
2014,04,11,14,14,14.70
2014,04,11,14,15,14.70
2014,04,11,14,16,14.80
2014,04,11,14,17,14.90
2014,04,11,14,18,15.00
2014,04,11,14,19,15.00
2014,04,11,14,20,15.10
2014,04,11,14,21,15.20
2014,04,11,14,22,15.30
2014,04,11,14,23,15.30
2014,04,11,14,24,15.50
2014,04,11,14,25,15.70
2014,04,11,14,26,15.70
2014,04,11,14,27,15.60
2014,04,11,14,28,15.60
2014,04,11,14,29,15.70
2014,04,11,14,30,15.80
2014,04,11,14,31,15.90
2014,04,11,14,32,15.90
2014,04,11,14,33,16.10
2014,04,11,14,34,16.10
2014,04,11,14,35,16.30
2014,04,11,14,36,16.30
2014,04,11,14,37,16.40
2014,04,11,14,38,16.40
2014,04,11,14,39,16.60
2014,04,11,14,40,16.60
2014,04,11,14,41,16.70
2014,04,11,14,42,16.70
2014,04,11,14,43,16.70
2014,04,11,14,44,16.70
2014,04,11,14,45,16.70
2014,04,11,14,46,16.70
2014,04,11,14,47,16.70
2014,04,11,14,48,16.50
2014,04,11,14,49,16.60
2014,04,11,14,50,16.60
2014,04,11,14,51,16.70
2014,04,11,14,52,16.70
2014,04,11,14,53,16.70
2014,04,11,14,54,16.80
2014,04,11,14,55,16.80
2014,04,11,14,56,16.90
2014,04,11,14,57,16.90
2014,04,11,14,58,17.00
2014,04,11,14,59,17.00
2014,04,11,15,00,16.90
2014,04,11,15,01,16.90
2014,04,11,15,02,16.90
2014,04,11,15,03,16.90
2014,04,11,15,04,16.90
2014,04,11,15,05,16.80
2014,04,11,15,06,16.90
2014,04,11,15,07,16.80
2014,04,11,15,08,16.80
2014,04,11,15,09,16.70
2014,04,11,15,10,16.70
2014,04,11,15,11,16.80
2014,04,11,15,12,16.80
2014,04,11,15,13,16.80
2014,04,11,15,14,16.80
2014,04,11,15,15,16.90
2014,04,11,15,16,17.00
2014,04,11,15,17,17.10
2014,04,11,15,18,17.20
2014,04,11,15,19,17.20
2014,04,11,15,20,17.20
2014,04,11,15,21,17.20
2014,04,11,15,22,17.20
2014,04,11,15,23,17.20
2014,04,11,15,24,17.30
2014,04,11,15,25,17.30
2014,04,11,15,26,17.40
2014,04,11,15,27,17.40
2014,04,11,15,28,17.40
2014,04,11,15,29,17.40
2014,04,11,15,30,17.30
2014,04,11,15,31,17.30
2014,04,11,15,32,17.30
2014,04,11,15,33,17.30
2014,04,11,15,34,17.20
2014,04,11,15,35,17.10
2014,04,11,15,36,17.00
2014,04,11,15,37,16.90
2014,04,11,15,38,16.90
2014,04,11,15,39,16.80
2014,04,11,15,40,16.80
2014,04,11,15,41,16.90
2014,04,11,15,42,16.80
2014,04,11,15,43,16.80
2014,04,11,15,44,16.70
2014,04,11,15,45,16.70
2014,04,11,15,46,16.70
2014,04,11,15,47,16.70
2014,04,11,15,48,16.70
2014,04,11,15,49,16.70
2014,04,11,15,50,16.80
2014,04,11,15,51,16.90
2014,04,11,15,52,17.00
2014,04,11,15,53,17.00
2014,04,11,15,54,17.10
2014,04,11,15,55,17.10
2014,04,11,15,56,17.00
2014,04,11,15,57,17.00
2014,04,11,15,58,17.00
2014,04,11,15,59,17.00
2014,04,11,16,00,17.00
2014,04,11,16,01,16.90
2014,04,11,16,02,16.80
2014,04,11,16,03,16.70
2014,04,11,16,04,16.80
2014,04,11,16,05,16.80
2014,04,11,16,06,16.80
2014,04,11,16,07,16.80
2014,04,11,16,08,16.70
2014,04,11,16,09,16.70
2014,04,11,16,10,16.70
2014,04,11,16,11,16.70
2014,04,11,16,12,16.70
2014,04,11,16,13,16.80
2014,04,11,16,14,16.80
2014,04,11,16,15,16.70
2014,04,11,16,16,16.70
2014,04,11,16,17,16.60
2014,04,11,16,18,16.60
2014,04,11,16,19,16.60
2014,04,11,16,20,16.60
2014,04,11,16,21,16.60
2014,04,11,16,22,16.50
2014,04,11,16,23,16.40
2014,04,11,16,24,16.40
2014,04,11,16,25,16.40
2014,04,11,16,26,16.40
2014,04,11,16,27,16.40
2014,04,11,16,28,16.50
2014,04,11,16,29,16.60
2014,04,11,16,30,16.60
2014,04,11,16,31,16.70
2014,04,11,16,32,16.70
2014,04,11,16,33,16.60
2014,04,11,16,34,16.50
2014,04,11,16,35,16.40
2014,04,11,16,36,16.40
2014,04,11,16,37,16.40
2014,04,11,16,38,16.40
2014,04,11,16,39,16.30
2014,04,11,16,40,16.20
2014,04,11,16,41,16.20
2014,04,11,16,42,16.20
2014,04,11,16,43,16.10
2014,04,11,16,44,16.10
2014,04,11,16,45,15.90
2014,04,11,16,46,15.70
2014,04,11,16,47,15.60
2014,04,11,16,48,15.60
2014,04,11,16,49,15.60
2014,04,11,16,50,15.60
2014,04,11,16,51,15.50
2014,04,11,16,52,15.50
2014,04,11,16,53,15.40
2014,04,11,16,54,15.30
2014,04,11,16,55,15.20
2014,04,11,16,56,15.10
2014,04,11,16,57,15.00
2014,04,11,16,58,15.00
2014,04,11,16,59,14.90
2014,04,11,17,00,14.90
2014,04,11,17,01,15.00
2014,04,11,17,02,15.00
2014,04,11,17,03,15.00
2014,04,11,17,04,15.10
2014,04,11,17,05,15.00
2014,04,11,17,06,15.10
2014,04,11,17,07,15.10
2014,04,11,17,08,15.20
2014,04,11,17,09,15.30
2014,04,11,17,10,15.40
2014,04,11,17,11,15.40
2014,04,11,17,12,15.40
2014,04,11,17,13,15.50
2014,04,11,17,14,15.40
2014,04,11,17,15,15.40
2014,04,11,17,16,15.30
2014,04,11,17,17,15.10
2014,04,11,17,18,15.00
2014,04,11,17,19,14.90
2014,04,11,17,20,14.90
2014,04,11,17,21,15.00
2014,04,11,17,22,15.00
2014,04,11,17,23,15.10
2014,04,11,17,24,15.10
2014,04,11,17,25,15.20
2014,04,11,17,26,15.30
2014,04,11,17,27,15.30
2014,04,11,17,28,15.30
2014,04,11,17,29,15.40
2014,04,11,17,30,15.40
2014,04,11,17,31,15.40
2014,04,11,17,32,15.30
2014,04,11,17,33,15.30
2014,04,11,17,34,15.30
2014,04,11,17,35,15.10
2014,04,11,17,36,15.10
2014,04,11,17,37,15.10
2014,04,11,17,38,15.10
2014,04,11,17,39,15.10
2014,04,11,17,40,15.00
2014,04,11,17,41,15.00
2014,04,11,17,42,14.90